Ardmore, OK

7:27 AM CDT on May 28, 2017 (GMT -0500)
Ardmore Municipal

Weather History for KADM - February, 2012

Change the Weather History Date:

Monday, February 20, 2012

  Actual Average Record
Temperature  
Mean Temperature 50 °F -  
Max Temperature 62 °F 55 °F 80 °F (2005)
Min Temperature 37 °F 37 °F 30 °F (2006)
Degree Days  
Heating Degree Days 16    
Moisture  
Dew Point 39 °F    
Average Humidity 81    
Maximum Humidity 100    
Minimum Humidity 27    
Precipitation  
Precipitation 0.00 in - - ()
Sea Level Pressure  
Sea Level Pressure 29.99 in    
Wind  
Wind Speed 8 mph (SSE)    
Max Wind Speed 28 mph    
Max Gust Speed 39 mph    
Visibility 8 miles    
Events      
Averages and records for this station are not official NWS values.
T = Trace of Precipitation, MM = Missing Value Source: NWS Daily Summary

Daily Weather History Graph

Daily Weather History Graph

Search for Another Location

Airport or City:

Trip Planner

Search our weather history database for the weather conditions in past years. The results will help you decide how hot, cold, wet, or windy it might be!

Date:

Astronomy

Feb. 20, 2012 Rise Set
Actual Time 7:08 AM CST 6:15 PM CST
Civil Twilight 6:42 AM CST 6:41 PM CST
Nautical Twilight 6:13 AM CST 7:10 PM CST
Astronomical Twilight 5:44 AM CST 7:39 PM CST
Moon 6:04 AM CST (2/20) 5:22 PM CST (2/20)
Length of Visible Light 11h 58m
Length of Day
11h 07m
Waning Crescent, 1% of the Moon is Illuminated
Feb 20
Waning Crescent
Feb 21
New
Feb 29
First Quarter
Mar 8
Full
Mar 14
Last Quarter

Hourly Weather History & Observations

Time (CST) Temp. Windchill Dew Point Humidity Pressure Visibility Wind Dir Wind Speed Gust Speed Precip Events Conditions
12:15 AM 37.4 °F 34.9 °F 37.4 °F 100% 30.02 in 5.0 mi ESE 3.5 mph - N/A   Clear
12:35 AM 39.2 °F 35.0 °F 39.2 °F 100% 30.01 in 4.0 mi ESE 5.8 mph - N/A   Clear
12:55 AM 39.2 °F 35.0 °F 39.2 °F 100% 30.01 in 5.0 mi ESE 5.8 mph - N/A   Clear
1:15 AM 39.2 °F 35.9 °F 39.2 °F 100% 30.01 in 5.0 mi ESE 4.6 mph - N/A   Clear
1:35 AM 39.2 °F 35.0 °F 39.2 °F 100% 30.01 in 5.0 mi SE 5.8 mph - N/A   Clear
1:55 AM 41.0 °F 38.0 °F 41.0 °F 100% 30.01 in 5.0 mi SE 4.6 mph - N/A   Clear
2:15 AM 41.0 °F 38.0 °F 41.0 °F 100% 30.01 in 5.0 mi SE 4.6 mph - N/A   Clear
2:35 AM 41.0 °F 39.0 °F 41.0 °F 100% 30.01 in 5.0 mi ESE 3.5 mph - N/A   Clear
2:55 AM 39.2 °F 35.9 °F 37.4 °F 93% 30.00 in 5.0 mi East 4.6 mph - N/A   Clear
3:15 AM 39.2 °F 34.2 °F 39.2 °F 100% 29.98 in 5.0 mi ESE 6.9 mph - N/A   Clear
3:35 AM 41.0 °F 35.8 °F 41.0 °F 100% 29.98 in 7.0 mi SE 8.1 mph - N/A   Clear
3:55 AM 42.8 °F 39.3 °F 41.0 °F 93% 29.98 in 10.0 mi SE 5.8 mph - N/A   Clear
4:15 AM 42.8 °F 38.6 °F 41.0 °F 93% 29.98 in 10.0 mi SE 6.9 mph - N/A   Clear
4:35 AM 42.8 °F 38.6 °F 41.0 °F 93% 29.98 in 10.0 mi SE 6.9 mph - N/A   Clear
4:55 AM 42.8 °F 38.6 °F 41.0 °F 93% 29.98 in 10.0 mi SE 6.9 mph - N/A   Clear
5:15 AM 42.8 °F 39.3 °F 41.0 °F 93% 29.98 in 10.0 mi SE 5.8 mph - N/A   Clear
5:35 AM 42.8 °F 38.6 °F 41.0 °F 93% 29.98 in 10.0 mi SE 6.9 mph - N/A   Scattered Clouds
5:55 AM 42.8 °F 38.6 °F 41.0 °F 93% 29.98 in 10.0 mi SE 6.9 mph - N/A   Scattered Clouds
8:55 AM 50.0 °F - 46.4 °F 87% 30.00 in 10.0 mi SSE 21.9 mph 25.3 mph N/A   Overcast
9:55 AM 51.8 °F - 46.4 °F 82% 29.99 in 10.0 mi South 18.4 mph 26.5 mph N/A   Overcast
11:55 AM 53.6 °F - 46.4 °F 77% 29.95 in 10.0 mi South 15.0 mph 28.8 mph N/A   Mostly Cloudy
1:55 PM 59.0 °F - 50.0 °F 72% 29.87 in 10.0 mi SSE 16.1 mph 26.5 mph N/A   Scattered Clouds
2:55 PM 62.6 °F - 50.0 °F 63% 29.83 in 10.0 mi South 16.1 mph 23.0 mph N/A   Scattered Clouds
3:55 PM 62.6 °F - 51.8 °F 68% 29.80 in 10.0 mi SSE 18.4 mph 23.0 mph N/A   Mostly Cloudy
4:55 PM 60.8 °F - 51.8 °F 72% 29.77 in 10.0 mi SSE 13.8 mph 19.6 mph N/A   Scattered Clouds
6:55 PM 59.0 °F - 24.8 °F 27% 29.90 in 10.0 mi West 27.6 mph 39.1 mph N/A   Overcast
7:55 PM 53.6 °F - 32.0 °F 44% 29.98 in 10.0 mi West 18.4 mph 29.9 mph N/A   Clear
8:55 PM 48.2 °F - 33.8 °F 58% 30.02 in 10.0 mi West 8.1 mph - N/A   Clear
9:15 PM 46.4 °F 41.9 °F 33.8 °F 62% 30.03 in 10.0 mi West 9.2 mph - N/A   Clear
9:35 PM 44.6 °F 40.2 °F 33.8 °F 66% 30.05 in 10.0 mi WNW 8.1 mph - N/A   Clear
10:15 PM 44.6 °F 39.2 °F 32.0 °F 61% 30.07 in 10.0 mi West 10.4 mph - N/A   Clear
10:35 PM 44.6 °F 39.7 °F 32.0 °F 61% 30.07 in 10.0 mi West 9.2 mph - N/A   Clear
10:55 PM 44.6 °F 39.7 °F 32.0 °F 61% 30.08 in 10.0 mi West 9.2 mph - N/A   Clear
11:15 PM 42.8 °F 38.0 °F 32.0 °F 66% 30.09 in 10.0 mi West 8.1 mph - N/A   Clear
11:35 PM 41.0 °F 37.1 °F 32.0 °F 70% 30.09 in 10.0 mi NW 5.8 mph - N/A   Clear
11:55 PM 37.4 °F 33.8 °F 30.2 °F 75% 30.10 in 10.0 mi WSW 4.6 mph - N/A   Clear